Regional Weather Roundup
Issued by NWS

Home | Current Version | Previous Version | Text Only | Print | Product List | Glossary Off
Versions: 1 2 3 4 5 6 7 8 9 10 11 12 13 14 15 16 17 18 19 20 21 22 23 24 25 26 27 28 29 30 31 32 33 34 35 36 37 38 39 40 41 42 43 44 45 46 47 48 49 50

000
ASUS43 KDTX 220110
RWRMI
MICHIGAN HOURLY REGIONAL WEATHER ROUNDUP
NATIONAL WEATHER SERVICE DETROIT/PONTIAC MI
ISSUED BY NATIONAL WEATHER SERVICE GRAND RAPIDS MI
800 PM EST TUE FEB 21 2017

NOTE: "FAIR" INDICATES FEW OR NO CLOUDS BELOW 12,000 FEET WITH NO
SIGNIFICANT WEATHER AND/OR OBSTRUCTION TO VISIBILITY.

MIZ047>049-052>055-059>063-066>070-074>076-081>083-220200-
SOUTHEAST LOWER MICHIGAN

CITY           SKY/WX    TMP DP  RH WIND       PRES   REMARKS
ADRIAN         CLOUDY    53  49  86 W3        29.95S
ALMA           FOG       43  42  97 SW7       29.92S VSB 1/2
ANN ARBOR      PTCLDY    50  48  93 S3        29.94S
BAD AXE        FOG       37  37  99 CALM      29.93R VSB<1/4
DETROIT CITY   MOCLDY    53  47  79 CALM      29.95S
DETROIT        MOCLDY    54  48  80 CALM      29.95S
FLINT          PTCLDY    48  47  96 SW3       29.94R
GROSSE ILE     CLOUDY    48  43  83 CALM      29.93F
HILLSDALE      PTCLDY    50  46  87 S3        29.94R
HOWELL         PTCLDY    53  49  87 NW3       29.93S

CITY           SKY/WX    TMP DP  RH WIND       PRES   REMARKS
JACKSON        MOCLDY    54  48  80 SW5       29.94R
LANSING        PTCLDY    54  49  83 W10       29.94S
MASON          PTCLDY    52  51  97 CALM      29.94S FOG
MONROE         CLOUDY    54  50  87 CALM      29.93F
MT. CLEMENS    MOCLDY    42  41  95 CALM      29.92S
PONTIAC        CLOUDY    53  47  79 SW5       29.93R
PORT HOPE        N/A     38  37  97 S3        29.91R
PORT HURON     PTCLDY    43  39  87 S3        29.94S
TRI CITIES     PTCLDY    50  49  96 SW3       29.92S
YPSILANTI      PTCLDY    53  49  86 CALM      29.94F
$$
MIZ043>046-050>051-056>058-064>065-071>073-077>080-220200-
SOUTHWEST LOWER MICHIGAN

CITY           SKY/WX    TMP DP  RH WIND       PRES   REMARKS
BATTLE CREEK   CLOUDY    54  51  90 CALM      29.94S
BENTON HARBOR  MOCLDY    51  49  92 E5        29.92S FOG
BIG RAPIDS     CLEAR     46  41  83 SW5       29.89F
COLDWATER      PTCLDY    50  49  99 CALM      29.94R
HOLLAND        CLOUDY    52  49  89 CALM      29.92F FOG
GRAND RAPIDS   CLOUDY    50  47  89 S6        29.92S FOG
KALAMAZOO      MOCLDY    54  49  83 CALM      29.94S
MARSHALL       MOCLDY    50  49  97 CALM      29.93S
MOUNT PLEASANT PTCLDY    44  43  95 CALM      29.90F FOG
MUSKEGON       FOG       44  43  96 CALM      29.91F VSB 1/4
STURGIS        PTCLDY    51  49  90 CALM      29.94R
$$
MIZ016>042-220200-
NORTHERN LOWER MICHIGAN

CITY           SKY/WX    TMP DP  RH WIND       PRES   REMARKS
ALPENA         FOG       33  33 100 SE3       29.90R VSB 1/4
BEAVER ISLAND  CLEAR     46  38  75 SW8       29.84S
BELLAIRE       CLEAR     36  34  92 CALM      29.87S
CADILLAC       CLEAR     40  35  83 CALM      29.88F
CHARLEVOIX     CLEAR     38  35  87 CALM      29.88F
GAYLORD        CLEAR     42  32  67 S3        29.86F
HOUGHTON LAKE  CLEAR     39  36  89 S5        29.89S
MANISTEE       CLEAR     38  36  92 CALM      29.88F
OSCODA         CLEAR     41  40  95 SW5       29.90R
PELLSTON       CLEAR     34  31  88 CALM      29.86S
TRAVERSE CITY  PTCLDY    45  36  70 CALM      29.85F
LUDINGTON      FOG       38  38 100 CALM      29.88F VSB 1/4
$$
MIZ007>008-015-220200-
EASTERN UPPER MICHIGAN

CITY           SKY/WX    TMP DP  RH WIND       PRES   REMARKS
KINROSS        LGT RAIN  37  37 100 S3        29.85S FOG
MACKINAC ISLAN CLEAR     41  41 100 S9        29.84F
NEWBERRY       CLOUDY    38  36  93 S9        29.81S WCI  31
S. S. MARIE    MOCLDY    39  37  92 SE3       29.85R FOG
$$
MIZ004>006-011>014-085-220200-
CENTRAL UPPER MICHIGAN

CITY           SKY/WX    TMP DP  RH WIND       PRES   REMARKS
MANISTIQUE     PTCLDY    37  36  97 S5        29.81F WCI  33
ESCANABA       PTCLDY    45  36  70 S8        29.79F
MENOMINEE      PTCLDY    47  35  63 S6        29.81
SAWYER-GWINN   CLEAR     48  28  46 SE5       29.75F
$$
MIZ001>003-009>011-084-220200-
WESTERN UPPER MICHIGAN

CITY           SKY/WX    TMP DP  RH WIND       PRES   REMARKS
IRON MOUNTAIN  CLOUDY    49  28  44 CALM      29.77S
HOUGHTON       CLOUDY    41  31  67 E5        29.72S
COPPER HARBOR    N/A     35  31  85 SW5       29.72F WCI  31
IRONWOOD       CLOUDY    50  31  48 SW7       29.72F
$$

ABBREVIATIONS USED IN REMARKS
   TC - TEMPERATURE IN CELSIUS
  WCI - WIND CHILL INDEX
   HX - HEAT INDEX
  VSB - VISIBILITY




USA.gov is the U.S. government's official web portal to all federal, state and local government web resources and services.